Location: Zapote
(9.9191°N, 84.0597°W)
Time: 22:06:58
(UTC-06:00)

Hubble Space Telescope - Visible Passes

Search period start: 04 April 2020 00:00
Search period end: 14 April 2020 00:00
Orbit: 536 x 540 km, 28.5° (Epoch: 04 April)

Date Brightness Start Highest point End Pass type
(mag) Time Alt. Az. Time Alt. Az. Time Alt. Az.
04 Apr 3.8 03:14:52 12° ESE 03:14:52 12° ESE 03:15:16 10° ESE visible
04 Apr 2.4 04:50:15 14° WSW 04:52:13 19° SSW 04:55:15 10° SSE visible
04 Apr 2.1 18:27:05 10° W 18:30:54 36° NNW 18:34:43 10° NE visible
05 Apr 2.7 04:40:54 14° SW 04:41:35 14° SSW 04:43:48 10° S visible
05 Apr 2.6 18:16:46 10° W 18:20:18 27° NNW 18:23:51 10° NE visible
06 Apr 3.0 18:06:32 10° WNW 18:09:44 21° NNW 18:12:55 10° NNE visible
